[[{"header":{"parameterUnit":"m.s-1","parameterCategory":1,"la1":30.2991,"la2":30.254,"lo1":-89.0895,"lo2":-89.0444,"dy":0.0017,"dx":0.0017,"nx":28,"ny":28,"refTime":"2025-07-05T09:00:00:Z","depth":0,"parameterNumber":2,"parameterNumberName":"U-component_of_WINDS"},"data":[0,0,0,0,0,0,0,0,0,0,0,0,0,0,0,0,0,0,0,0,0,0,0,0,0,0,0,0,0,0,0,0,0,0,0,0,0,0,0,0,0,0,0,0,0,0,0,0,0,0,0,0,0,0,0,0,0,0,-0.8216,-0.8215,0,-0.8102,-0.8101,-0.81,-0.8033,-0.8032,-0.8032,-0.8032,-0.7911,-0.7908,-0.7905,0,0,0,0,0,0,0,0,0,0,0,0,0,-0.8372,-0.837,-0.8216,-0.8215,-0.8213,-0.8102,-0.8101,-0.8099,-0.8033,-0.8032,-0.8032,-0.8032,-0.7912,-0.7909,-0.7905,0,0,0,0,0,0,0,0,0,0,0,0,0,-0.8286,-0.8369,-0.8216,-0.8167,-0.8161,-0.8103,-0.8101,-0.8099,-0.8033,-0.8032,-0.8032,-0.8031,-0.7913,-0.7909,-0.7905,-0.7886,0,0,-0.7891,-0.7889,0,0,0,0,0,0,0,0,-0.8291,-0.828,-0.8175,-0.817,-0.8164,-0.8081,-0.8112,-0.8027,-0.8033,-0.8081,-0.8032,-0.8031,-0.7968,-0.7959,-0.7938,-0.788,-0.7875,-0.7891,-0.7888,-0.7886,-0.7885,0,0,0,0,0,0,0,-0.8297,-0.8285,-0.8171,-0.8174,-0.8167,-0.8149,-0.8136,-0.8095,-0.8028,-0.8077,-0.8072,-0.806,-0.7965,-0.7943,-0.7935,-0.7873,-0.7891,-0.7887,-0.7884,-0.7883,-0.7793,-0.7794,0,0,0,0,0,0,-0.8312,-0.829,-0.8175,-0.8167,-0.8228,-0.8147,-0.8132,-0.8108,-0.8028,-0.8016,-0.806,-0.8057,-0.7951,-0.794,-0.7931,-0.7903,-0.7886,-0.7882,-0.788,-0.7793,-0.7794,-0.7794,0,0,0,0,0,0,-0.8315,-0.8302,-0.8179,-0.8228,-0.8211,-0.8144,-0.8118,-0.8106,-0.8084,-0.8016,-0.8003,-0.805,-0.795,-0.7937,-0.7898,-0.7898,-0.788,-0.7876,-0.7793,-0.7793,-0.7794,-0.7849,0,0,0,0,0,0,-0.832,-0.8304,-0.8297,-0.8228,-0.8208,-0.8149,-0.8118,-0.8104,-0.8077,-0.8072,-0.8003,-0.7991,-0.7949,-0.7905,-0.7893,-0.7892,-0.7873,-0.7792,-0.7793,-0.7794,-0.7847,-0.7851,-0.7855,0,0,0,0,0,-0.8326,-0.8316,-0.8297,-0.8283,-0.8198,-0.815,-0.8138,-0.809,-0.8078,-0.8069,-0.8025,-0.7994,-0.79,-0.7901,-0.7888,-0.7885,-0.7792,-0.7793,-0.7794,-0.7845,-0.785,-0.7855,0,0,0,0,0,0,-0.8385,-0.8306,-0.8284,-0.8251,-0.8208,-0.8138,-0.8127,-0.8097,-0.8056,-0.8052,-0.7993,-0.7978,-0.7945,-0.7911,-0.7913,-0.7863,-0.7843,-0.7841,-0.7886,-0.7891,-0.7895,-0.7904,-0.7869,0,0,0,0,0,-0.8394,-0.8362,-0.8295,-0.8273,-0.8252,-0.8193,-0.817,-0.8137,-0.8089,-0.807,-0.8023,-0.7977,-0.7937,-0.7912,-0.7871,-0.7841,-0.7825,-0.7833,-0.7837,-0.7841,-0.784,-0.7822,-0.7824,-0.7796,-0.7796,-0.7796,0,0,-0.8413,-0.8366,-0.8349,-0.8283,-0.8246,-0.8213,-0.8178,-0.8145,-0.812,-0.8064,-0.8025,-0.7989,-0.7934,-0.79,-0.7882,-0.787,-0.7844,-0.7842,-0.7845,-0.7842,-0.7823,-0.7825,-0.7828,-0.7796,-0.7796,-0.7796,0,0,-0.8431,-0.8392,-0.837,-0.8333,-0.8277,-0.8238,-0.8233,-0.8168,-0.8142,-0.8102,-0.806,-0.8029,-0.7961,-0.7924,-0.7896,-0.79,-0.7869,-0.7888,-0.791,-0.7893,-0.7895,-0.7897,-0.7899,-0.79,-0.7887,-0.7887,-0.7887,0,-0.8461,-0.8412,-0.8362,-0.8331,-0.8303,-0.8253,-0.8229,-0.8196,-0.8129,-0.8111,-0.8098,-0.8013,-0.7972,-0.7929,-0.793,-0.7909,-0.79,-0.7896,-0.7899,-0.79,-0.7901,-0.7902,-0.7903,-0.789,-0.789,-0.789,-0.7889,0,-0.8451,-0.8418,-0.8406,-0.8345,-0.8315,-0.8289,-0.8234,-0.821,-0.8179,-0.8142,-0.8101,-0.805,-0.7999,-0.7986,-0.7955,-0.7938,-0.7932,-0.7911,-0.7889,-0.7907,-0.7907,-0.7907,-0.7894,-0.7893,-0.7892,-0.7892,0,0,-0.8503,-0.8415,-0.8412,-0.8383,-0.8318,-0.829,-0.8261,-0.8212,-0.8193,-0.8148,-0.8122,-0.8067,-0.8046,-0.8014,-0.7979,-0.7964,-0.7971,-0.7944,-0.7941,-0.7951,-0.7949,-0.7967,-0.7968,-0.795,-0.795,-0.795,-0.7954,0,-0.8512,-0.8458,-0.8413,-0.8375,-0.8344,-0.8295,-0.8269,-0.8226,-0.819,-0.8157,-0.8116,-0.8078,-0.8054,-0.8035,-0.8018,-0.7974,-0.797,-0.7973,-0.7925,-0.7924,-0.7941,-0.7968,-0.7986,-0.7992,-0.7954,-0.7954,-0.7954,0,-0.8515,-0.8474,-0.8434,-0.8373,-0.8357,-0.8336,-0.8287,-0.8256,-0.8206,-0.818,-0.8146,-0.8109,-0.8075,-0.8057,-0.801,-0.8013,-0.799,-0.7966,-0.7965,-0.7958,-0.794,-0.7963,-0.7993,-0.7995,-0.7953,-0.7953,-0.7953,0,-0.8558,-0.8492,-0.846,-0.8437,-0.8364,-0.835,-0.8319,-0.8268,-0.8242,-0.8199,-0.8181,-0.8134,-0.8109,-0.8073,-0.8025,-0.8016,-0.7982,-0.796,-0.796,-0.7961,-0.7955,-0.7956,-0.7983,-0.794,-0.794,-0.794,-0.794,0,-0.8572,-0.855,-0.8478,-0.8459,-0.8432,-0.8379,-0.8354,-0.8318,-0.8274,-0.8245,-0.82,-0.8174,-0.8112,-0.8078,-0.8039,-0.8006,-0.7995,-0.7973,-0.7963,-0.7977,-0.798,-0.7962,-0.796,-0.794,-0.794,-0.794,-0.794,0,-0.8615,-0.8567,-0.8528,-0.8463,-0.8446,-0.8429,-0.8372,-0.8351,-0.8313,-0.8278,-0.8266,-0.8205,-0.8164,-0.8112,-0.8053,-0.8027,-0.7998,-0.7982,-0.8016,-0.801,-0.8013,-0.8013,-0.8029,-0.8028,-0.7986,-0.7987,-0.7987,0,-0.8628,-0.861,-0.8543,-0.8522,-0.8492,-0.8458,-0.8431,-0.8378,-0.8352,-0.8294,-0.8279,-0.8234,-0.8196,-0.8131,-0.8081,-0.8036,-0.802,-0.8028,-0.8012,-0.8028,-0.802,-0.8022,-0.802,-0.8032,-0.8033,-0.8034,-0.8034,0,-0.8657,-0.8634,-0.8597,-0.8553,-0.8522,-0.8484,-0.8444,-0.8429,-0.8367,-0.834,-0.8298,-0.8268,-0.8209,-0.8165,-0.8113,-0.808,-0.8047,-0.8039,-0.8037,-0.8052,-0.8072,-0.8062,-0.8027,-0.8039,-0.8039,-0.8038,-0.8038,-0.8038,-0.8685,-0.8667,-0.8617,-0.8578,-0.8543,-0.8506,-0.8484,-0.8443,-0.8407,-0.8355,-0.8326,-0.8284,-0.8234,-0.8162,-0.813,-0.8096,-0.8084,-0.808,-0.808,-0.808,-0.8084,-0.8077,-0.8087,-0.8086,-0.8086,-0.8086,-0.8086,0,-0.8712,-0.8678,-0.8642,-0.8588,-0.8558,-0.853,-0.8484,-0.846,-0.8425,-0.8381,-0.8345,-0.8296,-0.8253,-0.82,-0.8154,-0.8137,-0.8121,-0.8127,-0.8127,-0.812,-0.8098,-0.8105,-0.8141,-0.8141,-0.8141,-0.8141,-0.8141,-0.8141,-0.8722,-0.869,-0.8661,-0.8611,-0.8576,-0.8536,-0.8513,-0.8479,-0.8444,-0.8392,-0.8357,-0.8323,-0.8275,-0.8225,-0.8184,-0.817,-0.8155,-0.8166,-0.8147,-0.8127,-0.8122,-0.8117,-0.8124,-0.8163,-0.8163,-0.8172,-0.8172,-0.8172]},{"header":{"parameterUnit":"m.s-1","parameterCategory":1,"la1":30.2991,"la2":30.254,"lo1":-89.0895,"lo2":-89.0444,"dy":0.0017,"dx":0.0017,"nx":28,"ny":28,"refTime":"2025-07-05T09:00:00:Z","depth":0,"parameterNumber":3,"parameterNumberName":"V-component_of_WINDS"},"data":[0,0,0,0,0,0,0,0,0,0,0,0,0,0,0,0,0,0,0,0,0,0,0,0,0,0,0,0,0,0,0,0,0,0,0,0,0,0,0,0,0,0,0,0,0,0,0,0,0,0,0,0,0,0,0,0,0,0,2.1775,2.1775,0,2.1772,2.1772,2.1772,2.1777,2.1778,2.1778,2.1778,2.1773,2.1773,2.1773,0,0,0,0,0,0,0,0,0,0,0,0,0,2.1786,2.1786,2.1775,2.1775,2.1775,2.1772,2.1772,2.1772,2.1777,2.1778,2.1778,2.1778,2.1773,2.1773,2.1773,0,0,0,0,0,0,0,0,0,0,0,0,0,2.1782,2.1786,2.1775,2.1778,2.1778,2.1772,2.1772,2.1772,2.1777,2.1778,2.1778,2.1778,2.1774,2.1773,2.1773,2.1764,0,0,2.1771,2.1771,0,0,0,0,0,0,0,0,2.1782,2.1781,2.1777,2.1778,2.1778,2.1775,2.1774,2.1769,2.1777,2.1778,2.1778,2.1778,2.1774,2.1773,2.1772,2.1763,2.1763,2.1771,2.1771,2.1771,2.1771,0,0,0,0,0,0,0,2.1782,2.1782,2.1774,2.1777,2.1778,2.1779,2.1778,2.1773,2.1774,2.1778,2.1778,2.1777,2.1774,2.1772,2.1772,2.1763,2.1771,2.1771,2.177,2.177,2.1746,2.1745,0,0,0,0,0,0,2.1783,2.1782,2.1774,2.1774,2.1781,2.1778,2.1778,2.1776,2.1774,2.1774,2.1777,2.1778,2.1773,2.1772,2.1772,2.176,2.1771,2.177,2.177,2.1746,2.1745,2.1745,0,0,0,0,0,0,2.1783,2.1782,2.1774,2.1778,2.1777,2.1778,2.1775,2.1776,2.1774,2.1774,2.1774,2.1776,2.1773,2.1772,2.1765,2.176,2.177,2.177,2.1746,2.1746,2.1745,2.1737,0,0,0,0,0,0,2.1783,2.1782,2.1779,2.1778,2.1777,2.1768,2.1775,2.1775,2.1773,2.1774,2.1772,2.1772,2.1773,2.1766,2.1765,2.1759,2.1769,2.1747,2.1746,2.1745,2.1738,2.1736,2.1735,0,0,0,0,0,2.1783,2.1777,2.1779,2.1778,2.1773,2.1768,2.1767,2.1769,2.1773,2.1769,2.1769,2.1772,2.1761,2.1765,2.1764,2.1758,2.1747,2.1746,2.1746,2.1739,2.1737,2.1735,0,0,0,0,0,0,2.1777,2.1777,2.1779,2.1772,2.177,2.1769,2.1765,2.1767,2.1764,2.1765,2.1767,2.1766,2.1759,2.1758,2.1763,2.1749,2.1755,2.1753,2.175,2.1748,2.1747,2.1747,2.1769,0,0,0,0,0,2.1775,2.1771,2.1771,2.1765,2.1764,2.1764,2.1762,2.1764,2.1762,2.1761,2.176,2.1758,2.1754,2.1751,2.1747,2.1738,2.1737,2.1733,2.1732,2.1731,2.173,2.1724,2.1722,2.1742,2.1742,2.1742,0,0,2.177,2.177,2.1767,2.1763,2.1762,2.1758,2.1764,2.1759,2.1755,2.176,2.1753,2.1753,2.175,2.1742,2.1738,2.1741,2.1724,2.173,2.1729,2.1728,2.1723,2.1721,2.1719,2.1742,2.1742,2.1742,0,0,2.1759,2.1759,2.1753,2.1752,2.175,2.175,2.1749,2.1747,2.1747,2.174,2.1743,2.1739,2.1732,2.1729,2.1727,2.1715,2.1717,2.1713,2.1706,2.17,2.1698,2.1697,2.1691,2.1689,2.1712,2.1712,2.1712,0,2.1754,2.1748,2.175,2.1745,2.1742,2.1746,2.174,2.1738,2.1735,2.1733,2.1737,2.1727,2.1726,2.1716,2.1713,2.1712,2.1709,2.1713,2.1698,2.1697,2.1696,2.169,2.1688,2.1712,2.1712,2.1712,2.1712,0,2.174,2.1736,2.1732,2.1728,2.1725,2.172,2.172,2.1717,2.1719,2.1719,2.1711,2.1709,2.1705,2.1703,2.1704,2.1693,2.1695,2.1698,2.1704,2.1693,2.1688,2.1686,2.1711,2.1711,2.1711,2.1711,0,0,2.1726,2.1723,2.1721,2.1719,2.1717,2.1713,2.1707,2.1703,2.17,2.1697,2.1692,2.1685,2.1688,2.1686,2.1687,2.1682,2.167,2.1685,2.1685,2.1682,2.1657,2.1654,2.1651,2.1672,2.1672,2.1671,2.1657,0,2.1714,2.1704,2.1706,2.1696,2.1691,2.1694,2.1689,2.1687,2.1686,2.1681,2.1681,2.1676,2.168,2.1679,2.1674,2.1673,2.1665,2.1674,2.1666,2.1666,2.1666,2.1649,2.1646,2.1632,2.1655,2.1654,2.1654,0,2.17,2.1696,2.1686,2.1683,2.1682,2.1677,2.1672,2.1668,2.1665,2.1665,2.1662,2.1663,2.1656,2.1662,2.1652,2.1658,2.1655,2.1654,2.1653,2.1652,2.1659,2.1647,2.1628,2.1626,2.1651,2.1652,2.1652,0,2.1689,2.1682,2.1675,2.1673,2.167,2.1666,2.1665,2.1662,2.1659,2.1655,2.1653,2.1648,2.1645,2.1641,2.1641,2.1645,2.163,2.1636,2.1629,2.1629,2.1625,2.1625,2.1605,2.1624,2.1624,2.1624,2.1624,0,2.1676,2.1669,2.167,2.1665,2.1657,2.1659,2.1651,2.1649,2.1647,2.1641,2.1644,2.1639,2.1639,2.1634,2.1634,2.1625,2.1624,2.1623,2.1623,2.1622,2.1622,2.162,2.162,2.1624,2.1624,2.1624,2.1624,0,2.1663,2.1663,2.1655,2.1652,2.1652,2.1646,2.1643,2.1639,2.1638,2.1631,2.163,2.1628,2.1622,2.1622,2.1614,2.1614,2.1603,2.1604,2.1604,2.1604,2.1596,2.1597,2.1573,2.157,2.1592,2.1591,2.1591,0,2.1654,2.1649,2.1646,2.1642,2.164,2.1635,2.1632,2.1633,2.1629,2.1624,2.162,2.1614,2.1609,2.1598,2.1596,2.159,2.1591,2.1583,2.159,2.1589,2.159,2.159,2.1589,2.1582,2.1581,2.1581,2.1581,0,2.1638,2.1638,2.1634,2.1629,2.1625,2.1621,2.1617,2.1614,2.1614,2.161,2.1603,2.1599,2.1591,2.1585,2.1579,2.1577,2.1578,2.1579,2.1577,2.1576,2.1575,2.1574,2.1599,2.1579,2.1579,2.158,2.158,2.158,2.1626,2.1621,2.1618,2.1613,2.161,2.1606,2.1601,2.16,2.1595,2.1588,2.1589,2.1581,2.1577,2.1569,2.1566,2.156,2.1562,2.156,2.1559,2.1558,2.1556,2.1577,2.1559,2.1559,2.1559,2.1559,2.1559,0,2.161,2.1608,2.1603,2.1597,2.1593,2.1595,2.1591,2.1587,2.158,2.1576,2.1571,2.1563,2.1556,2.1554,2.1547,2.1542,2.1543,2.154,2.154,2.1539,2.1555,2.1557,2.154,2.154,2.154,2.154,2.154,2.154,2.1601,2.1592,2.1592,2.1582,2.158,2.1572,2.157,2.1566,2.1563,2.1553,2.1548,2.1546,2.1543,2.1535,2.1529,2.1528,2.1525,2.1522,2.1522,2.1536,2.1538,2.154,2.1542,2.1522,2.1522,2.1506,2.1506,2.1506]}]]